Regional Weather Roundup
Issued by NWS San Diego, CA

Home | Current Version | Previous Version | Text Only | Print | Product List | Glossary On
Versions: 1 2 3 4 5 6 7 8 9 10 11 12 13 14 15 16 17 18 19 20 21 22 23 24 25 26 27 28 29 30 31 32 33 34 35 36 37 38 39 40 41 42 43 44 45 46 47 48 49 50
000
ASUS46 KSGX 021110
RWRSGX

SAN DIEGO HOURLY WEATHER ROUNDUP
NATIONAL WEATHER SERVICE SAN DIEGO CA
400 AM PDT THU OCT 02 2014

NOTE: "FAIR" INDICATES FEW OR NO CLOUDS BELOW 12,000 FEET WITH NO
SIGNIFICANT WEATHER AND/OR OBSTRUCTIONS TO VISIBILITY.

CAZ042-043-060-061-PZZ750-775-021200-

GREATER SAN DIEGO AREA

CITY           SKY/WX    TMP DP  RH WIND       PRES   REMARKS
LINDBERGH FLD  CLEAR     67  62  84 CALM      29.88S
POINT LOMA       N/A     65  63  93 N6          N/A
NATIONAL CITY    N/A     64  61  90 CALM      29.88S
CHULA VISTA      N/A     61  60  95 W1        29.80S
IMPERIAL BEACH CLEAR     64  61  90 E7        29.87S
BROWN FIELD    CLEAR     62  60  93 SE5       29.88S
MIRAMAR MCAS   PTCLDY    61  57  87 NE3       29.88S
MONTGOMERY FLD CLEAR     64  61  90 CALM      29.88S

$$

NORTH SAN DIEGO COUNTY

CITY           SKY/WX    TMP DP  RH WIND       PRES   REMARKS
CAMP PENDLETON CLEAR     56  52  86 CALM      29.87S FOG
OCEANSIDE AP   CLEAR     58  56  93 CALM      29.87S
OCEANSIDE HBR    N/A     62  60  92 E12       29.89F
VISTA            N/A     59  56  88 CALM      29.86S
CARLSBAD       CLEAR     63  60  90 CALM      29.87S
DEL MAR          N/A     63  62  96 CALM      29.89S
FALLBROOK        N/A     71  61  71 N5        29.88S
ESCONDIDO        N/A     62  59  89 CALM      29.89S
SAN MARCOS       N/A     63  59  87 CALM      29.86R
POWAY            N/A     58  55  89 CALM      29.89S

$$

EAST SAN DIEGO COUNTY

CITY           SKY/WX    TMP DP  RH WIND       PRES   REMARKS
RAMONA         CLEAR     52  49  89 CALM      29.92R
SANTEE LAKES     N/A     59  57  92 CALM      29.89S
LA MESA          N/A     64  61  90 E2        29.81F
JAMUL            N/A     58  56  94 CALM      29.87S
MT. LAGUNA OBS   N/A     56  31  38 N23       29.70S
CAMPO            N/A     64  38  38 NE6       29.96R

$$

ORANGE COUNTY AND THE LOS ANGELES BASIN

CITY           SKY/WX    TMP DP  RH WIND       PRES   REMARKS
JOHN WAYNE AP  CLEAR     68  61  78 CALM      29.87S
LAKE FOREST FR   N/A     74  33  22 CALM      29.75F
SANTA ANA        N/A     62  59  91 CALM      29.83R
HUNTINGTON BCH   N/A     62  60  95 CALM      29.90S
LOS ALAMITOS   FAIR      60  58  96 VRB1      29.87S
FULLERTON      CLEAR     63  58  83 CALM      29.86S
LONG BEACH     CLEAR     66  62  87 NW6       29.87S
L.A. AP        CLEAR     64  61  90 CALM      29.89R
L.A. DOWNTOWN  CLEAR     65  60  84 CALM      29.88S

$$

THE INLAND EMPIRE

CITY           SKY/WX    TMP DP  RH WIND       PRES   REMARKS
CORONA         CLEAR     56  52  86 CALM      29.91R
CHINO          CLEAR     59  56  89 N3        29.92R
ONTARIO        CLEAR     61  54  77 W3        29.91R
RIVERSIDE AP   CLEAR     63  57  81 E5        29.92R
RIV CYN CREST    N/A     65  60  85 S2        29.89S
MORENO VALLEY    N/A     75  35  23 E7        29.12F
MARCH ARB      CLEAR     57  52  82 CALM      29.95R
HORSETHIEF CYN   N/A     68  33  28 SW3       29.93S
PERRIS           N/A     62  58  86 CALM      29.93S
MENIFEE          N/A     60  58  90 CALM      30.00S
HEMET EAST       N/A     67  29  23 CALM      29.90S
FRENCH VALLEY  FAIR      61  55  82 N5        29.94R
TEMECULA         N/A     60  55  84 CALM      29.90R

$$

SAN BERNARDINO AND RIVERSIDE COUNTY MOUNTAINS

CITY           SKY/WX    TMP DP  RH WIND       PRES   REMARKS
BIG BEAR AP    PTCLDY    32  21  64 E3        30.26R
ANGELUS OAKS     N/A     55  21  27 CALM      29.87R
PINE COVE        N/A     55  27  34 CALM      29.84R

$$

SOUTHERN DESERT INCLUDING THE COACHELLA VALLEY

CITY           SKY/WX    TMP DP  RH WIND       PRES   REMARKS
PALM SPRINGS   CLEAR     82  21  10 W9        29.94R
THOUSAND PALMS   N/A     74  32  22 CALM      29.88R
PALM DESERT      N/A     73  37  26 CALM      27.50F
THERMAL        CLEAR     67  38  34 NW5       29.87R
BLYTHE         CLEAR     76  30  18 N16       29.92R
IMPERIAL AP    CLEAR     67  47  48 W6        29.87R
EL CENTRO NAS  CLEAR     67  43  41 SW7       29.87R
YUMA AZ        CLEAR     80  30  16 N13       29.87R

$$

UPPER DESERT

CITY           SKY/WX    TMP DP  RH WIND       PRES   REMARKS
VICTORVILLE AP CLEAR     52  21  30 W5        30.07S
HESPERIA         N/A     56  27  33 CALM      30.10R
APPLE VALLEY     N/A     50  33  51 CALM      30.14R
PALMDALE       CLEAR     56  25  30 N3        30.06R
LANCASTER      CLEAR     49  22  34 W5        30.06R
EDWARDS AFB    CLEAR     54  15  21 CALM      30.05R
DAGGETT        CLEAR     61  12  14 CALM      30.05R
29 PALMS N     CLEAR     64  23  21 CALM      30.11R
NEEDLES        CLEAR     73  25  16 N13G23    30.01R

$$

REGIONAL REPORTS

CITY           SKY/WX    TMP DP  RH WIND       PRES   REMARKS
SANTA BARBARA  CLEAR     59  57  93 CALM      29.88S
SANDBERG       CLEAR     65  14  14 E18       30.13R
MT. WILSON       N/A     59  18  20 SW7         N/A
LAS VEGAS NV   CLEAR     64  28  25 W3        30.10R
PHOENIX AZ     CLEAR     70  53  54 SW5       29.89R
TIJUANA        CLEAR     61  57  88 CALM      29.89S
ENSENADA NW      N/A     64  32  30 N2        29.85S

$$

OFFSHORE ISLANDS

CITY           SKY/WX    TMP DP  RH WIND       PRES   REMARKS
CATALINA ARPT  CLEAR     74  43  32 E9        29.93S
SAN NICOLAS IS CLEAR    N/A N/A N/A CALM      29.89S

$$

MARINE AND OFFSHORE BUOY REPORTS

STATION/POSITION SKY/WX   TEMP    WIND        PRES    SWELL
                          AIR SEA DIR/SP/G            HT/PER/DIR
                          (F)     (DEG/KT/KT) (MB)    (FT/S/D)
TANNER BANKS               65 68  170/  2/  4 1011.5F   7/320/10
S CLEMENTE BASIN           70 72  360/  4/  6 1011.2F   3/230/19
SAN NICOLAS IS.               66                N/A     3/300/11
SO. S. ROSA ISLA           64 65  110/  4/  6 1011.1R   8/11
W. S. BARBARA CH           65 65  110/ 10/ 12 1010.9R   7/300/11
S. MONICA BASIN            67 70   CALM  /  2 1011.5S   3/180/11
S PEDRO CHANNEL               71                N/A     2/230/11
DANA POINT                    69                N/A     2/230/14
CMP PENDLETON NS              69                N/A     2/230/20
OCEANSIDE OFFSHR              71                N/A     2/210/20
TORREY PINES OTR              72                N/A     3/280/11
LA JOLLA 1                 67 71   90/  3/  4 1011.5R
MISSION BAY BUOY              72                N/A     2/230/14
SAN DIEGO BAY                 73              1012.0R
POINT LOMA SOUTH              72                N/A     2/220/14

$$



USA.gov is the U.S. government's official web portal to all federal, state and local government web resources and services.